Location: Focicchia
(42.2496°N, 9.2935°E)
Time: 19:59:15
(UTC+00:00)

CZ-4C R/B - Pass Details

Date: 07 June 2020
Orbit: 634 x 1367 km, 63.4° (Epoch: 05 July)

Event Time Altitude Azimuth Distance (km) Brightness Sun altitude
Exits shadow 01:16:44 - 276° (W) 2,745 4.7 -19.8°
Reaches altitude 10° 01:18:17 10° 288° (WNW) 2,353 4.4 -19.6°
Maximum altitude 01:22:04 19° 332° (NNW) 1,956 4.5 -19.3°
Drops below altitude 10° 01:26:19 10° 16° (NNE) 2,689 6.0 -18.9°
Sets 01:30:00 0° 34° (NNE) 3,798 7.3 -18.5°
